SCP
0 0 0 0 0 0 0 0 0 0 0 0 0 0 0 0 0 0 0 0 0 0 0 0 0 0 0 0 0 0 0 0 0 0 0 0 0 0
0 0 0 0 0 0 0 0 0 0 0 0 0 0 0 0 0 0 0 0 0 0 0 0 0 0 0 0 0 0 0 0 0 0 0 0 0 0
0 0 0 0 0 0 0 0 0 0 0 0 0 0 0 0 0 0 0 0 0 0 0 0 0 0 0 0 0 0 0 0 0 0 0 0 0 0
0 0 0 0 0 0 0 0 0 0 0 0 0 0 0 0 0 0 0 0 0 0 0 0 0 0 0 0 0 0 0 0 0 0 0 0 0 0
0 0 0 0 0 0 0 0 0 0 0 0 0 0 0 0 0 0 0 0 0 0 0 0 0 0 0 0 0 0 0 0 0 0 0 0 0 0
0 0 0 0 0 0 0 0 0 0 0 0 0 0 0 0 0 0 0 0 0 0 0 0 0 0 0 0 0 0 0 0 0 -0 0 0 0 0
0 0 0 0 0 0 0 0 0 0 0 0 0 0 0 0 0 0 0 0 0 0 0 0 0 0 0 0 0 0 0 0 0 0 0 0 0 0
0 0 0 0 0 0 0 0 0 0 0 0 0 0 0 0 0 0 0 0 0 0 0 0 0 0 0 0 0 0 0 0 0 0 0 0 0 0
0 0 0 0 0 0 0 0 0 0 0 0 0 0 0 0 0 0 0 0 0 0 0 0 0 0 0 0 0 -0 0 0 0 0 0 0 0 0
0 0 0 0 0 0 0 0 0 0 0 0 0 0 0 0 0 0 0 0 0 0 0 0 0 0 0 0 -0 -0 0 0 0 -0 -0 -0 -0 0
0 0 0 0 0 0 0 0 0 0 0 0 0 0 0 0 0 0 0 0 0 0 0 0 0 0 0 0 0 0 0 0 0 -0 -0 0 -0 0
0 0 0 0 0 0 0 0 0 0 0 0 0 0 0 0 0 0 0 0 0 0 0 0 0 0 0 0 0 0 0 0 0 0 -0 -0 -0 0
0 0 0 0 0 0 0 0 0 0 0 0 0 0 0 0 0 0 0 0 0 0 0 0 0 0 0 0 0 0 0 0 0 0 0 -0 -0 0
0 0 0 0 0 0 0 0 0 0 0 0 0 0 0 0 0 0 0 0 0 0 0 0 0 0 0 0 0 0 0 0 0 0 0 0 0 0
0 0 0 0 0 0 0 0 0 0 0 0 0 0 0 0 0 0 0 0 0 0 0 0 0 0 0 0 0 -0 -0 0 0 0 0 0 0 0
0 0 0 0 0 0 0 0 0 0 0 0 0 0 0 0 0 0 0 0 0 0 0 0 0 0 0 0 0 -0 -0 0 0 0 0 0 0 0
0 0 0 0 0 0 0 0 0 0 0 0 0 0 0 0 0 0 0 0 0 0 0 0 0 0 0 0 0 -0 0 0 0 0 -0 0 0 0
0 0 0 0 0 0 0 0 0 0 0 0 0 0 0 0 0 0 0 0 0 0 0 0 0 0 0 0 -0 -0 0 0 0 0 0 0 0 0
0 0 0 0 0 0 0 0 0 0 0 0 0 0 0 0 0 0 0 0 0 0 0 0 0 0 -0 -0 0 -0 -0 0 0 0 0 0 0 0
0 0 0 0 0 0 0 0 0 0 0 0 0 0 0 0 0 0 0 0 0 0 0 0 0 0 -0 -0 0 0 -0 -0 0 0 0 0 0 0
0 0 0 0 0 0 0 0 0 0 0 0 0 0 0 0 0 0 0 0 0 0 0 0 0 0 -0 0 0 0 0 0 -0 -0 -0 -0 0 0
0 0 0 0 0 0 0 0 0 0 0 0 0 0 0 0 0 0 0 0 0 0 0 0 0 -0 -0 0 0 0 0 0 0 -0 -0 -0 -0 0
0 0 0 0 0 0 0 0 0 0 0 0 0 0 0 0 0 0 0 0 0 0 0 -0 -0 -0 0 0 0 0 0 0 0 0 0 -0 -0 -0
Wind_Speed_500mb
14 10 6 6 8 10 13 16 16 12 18 16 25 28 31 33 39 44 51 54 58 63 68 73 78 82 83 81 74 74 77 77 80 78 75 74 72 71
16 11 8 7 10 13 15 17 18 20 18 25 29 34 36 39 43 47 52 55 58 62 70 75 81 85 84 79 73 73 75 78 79 79 77 76 74 71
19 15 11 10 13 16 18 19 21 24 30 33 35 38 44 47 51 55 59 62 63 64 71 74 82 85 84 81 76 77 75 74 73 73 73 72 70 68
22 19 15 14 16 20 21 21 23 28 34 41 45 47 52 53 57 61 64 68 69 70 75 74 80 84 87 87 85 79 72 69 67 68 68 67 65 62
25 22 20 19 21 23 24 26 28 31 37 47 52 55 60 62 64 66 69 72 75 75 83 74 83 89 88 86 81 80 77 66 65 67 68 66 63 64
31 28 26 25 26 28 30 31 35 38 42 49 55 59 62 65 67 72 76 77 81 79 88 79 90 90 89 86 82 80 77 70 72 71 67 67 66 65
39 36 34 32 33 35 37 37 42 45 48 53 59 62 65 67 67 71 76 81 83 83 86 91 95 94 92 86 83 82 75 69 65 62 59 60 56 55
47 43 40 40 40 42 44 45 48 50 52 57 61 65 67 65 65 69 73 73 85 82 98 95 95 96 88 89 86 81 70 64 59 65 68 69 68 65
53 50 47 47 47 49 48 51 55 56 59 61 66 68 68 63 65 65 63 68 81 91 89 97 92 94 92 95 87 73 70 61 70 69 64 65 60 58
60 56 54 54 54 53 54 58 59 61 60 60 66 67 64 59 54 59 65 74 85 90 77 89 87 98 98 99 84 80 81 76 68 65 59 64 61 59
65 60 61 60 57 56 62 64 65 68 63 63 67 68 54 45 53 64 63 70 86 89 78 66 88 99 101 96 95 90 81 79 77 65 67 58 55 54
66 66 64 64 62 61 64 67 73 73 68 69 67 63 59 58 53 53 59 69 71 80 51 71 85 78 94 100 101 93 89 81 81 68 49 48 51 50
70 67 67 65 63 64 67 72 75 71 72 71 70 68 66 62 56 58 62 63 66 70 66 57 79 79 68 94 101 94 88 86 75 62 48 59 51 49
72 71 71 65 67 68 69 71 70 67 66 67 69 71 68 67 67 67 66 64 64 66 59 53 70 66 67 83 93 93 84 77 69 60 66 61 48 40
73 70 69 72 72 73 72 65 54 55 60 67 71 73 69 67 72 71 67 66 68 66 55 51 59 61 60 71 81 84 86 74 59 72 66 61 57 50
68 73 73 71 71 72 71 63 56 56 61 67 70 68 68 70 72 71 69 68 72 72 55 48 54 54 63 63 68 71 60 62 69 71 70 65 54 47
60 63 64 66 67 64 62 62 61 56 58 60 63 67 68 69 72 72 65 66 70 70 63 50 47 52 55 58 60 51 59 69 65 65 65 66 58 53
54 57 57 57 57 57 58 59 58 59 61 63 66 68 68 66 65 64 62 63 68 61 56 51 49 54 56 54 41 48 58 66 63 58 57 63 65 56
45 46 48 50 50 51 55 60 66 70 73 73 70 68 61 59 60 62 63 61 61 54 48 43 39 43 52 60 63 53 63 59 63 63 58 58 62 58
37 43 49 54 59 63 66 68 70 70 69 67 62 59 58 58 59 59 57 55 54 48 45 34 30 33 38 49 64 61 51 55 58 63 58 51 50 52
42 44 45 48 52 56 61 64 64 63 59 55 51 48 47 50 53 53 51 49 46 42 42 31 26 27 33 39 48 60 52 45 47 46 45 48 59 57
39 41 43 46 50 52 53 54 52 49 45 43 42 42 41 42 44 43 44 43 39 39 39 31 25 27 29 34 44 51 58 56 40 34 32 32 41 44
40 41 41 41 44 45 45 45 44 40 38 39 40 40 40 41 39 40 41 39 36 36 34 32 26 25 26 30 37 45 51 57 59 48 36 36 33 29
Wind_Direction_500mb
207 217 240 262 268 264 263 275 289 288 303 310 319 321 324 328 328 331 332 332 332 333 329 328 331 331 328 325 321 318 315 311 308 304 303 302 301 298
209 219 227 242 252 252 260 275 284 290 290 304 313 313 316 319 321 322 323 325 327 328 325 329 333 330 330 328 322 319 313 309 306 303 301 300 299 298
206 215 226 237 247 255 265 276 287 294 300 305 307 308 310 314 317 319 320 323 326 326 324 330 329 329 331 326 324 319 316 313 309 304 302 300 300 299
214 221 229 241 251 260 267 278 289 296 303 306 306 307 308 313 315 316 317 319 322 326 324 329 325 329 331 329 327 326 321 316 312 309 305 303 301 298
226 230 236 247 258 264 270 280 286 295 302 304 307 309 311 314 314 313 315 317 319 323 320 328 324 329 329 328 328 328 324 322 319 312 307 304 301 298
234 237 243 253 263 270 273 278 284 292 298 301 303 307 308 312 312 313 313 317 318 320 318 327 324 326 328 329 328 329 329 321 315 311 304 300 298 297
238 241 248 256 265 274 277 278 281 289 293 297 299 303 306 310 313 315 315 314 316 323 319 323 322 326 327 328 330 333 327 323 322 319 316 310 307 298
242 247 251 259 268 277 278 278 281 285 289 291 296 299 305 308 311 312 312 311 320 318 318 319 322 323 325 329 334 333 329 325 323 315 310 306 303 302
245 249 254 263 270 276 279 280 283 286 289 291 294 297 302 306 306 305 305 311 311 315 316 314 321 320 326 327 332 334 335 326 320 319 316 312 308 304
248 252 259 265 271 275 279 279 281 282 283 284 288 292 293 298 300 297 303 307 307 312 317 314 319 318 325 324 331 338 337 329 325 322 320 313 308 305
250 255 261 267 272 275 276 280 282 281 282 284 285 288 294 281 274 288 296 306 311 312 315 311 317 317 322 324 330 334 334 336 334 326 319 318 315 312
254 257 261 268 272 273 276 280 280 284 287 285 284 285 287 289 290 294 301 308 309 307 306 312 314 321 324 321 323 330 334 338 335 332 328 328 322 320
258 261 266 269 274 277 278 279 281 284 285 285 289 293 295 297 296 297 304 306 307 298 309 310 309 314 314 314 319 328 333 335 332 334 325 329 327 322
262 265 268 273 273 275 276 278 279 280 283 286 286 288 291 295 296 297 301 305 305 300 306 305 301 308 311 310 314 324 330 333 332 331 332 330 330 334
264 269 274 274 278 281 282 282 279 273 270 271 278 286 292 292 292 295 297 304 304 301 303 304 300 305 307 308 312 321 328 332 336 332 329 334 337 336
262 268 274 278 280 282 285 287 283 281 279 283 287 290 290 289 291 291 293 301 303 302 303 304 301 303 305 310 313 321 329 329 336 334 330 329 331 335
261 263 267 272 276 278 279 280 281 278 280 282 283 285 286 286 286 287 290 298 299 301 305 307 301 303 306 313 316 330 335 336 338 331 328 327 332 340
266 269 269 269 272 276 279 282 284 287 290 291 290 289 288 287 284 284 289 295 296 298 303 307 309 311 313 318 333 340 337 336 335 337 334 330 328 341
270 274 276 280 280 281 283 287 290 292 293 293 292 292 288 283 283 285 290 291 292 297 300 303 310 319 323 326 331 347 337 342 339 336 337 331 327 336
267 266 268 273 278 283 288 293 295 297 297 297 295 293 287 284 283 284 287 290 292 296 295 296 306 317 326 326 323 334 357 347 342 333 335 331 335 336
274 275 279 284 288 292 295 296 297 299 300 299 298 297 292 284 282 284 287 288 292 294 292 296 305 313 316 317 323 335 345 353 352 341 339 339 334 341
280 284 289 294 297 298 299 301 304 306 307 305 303 300 297 294 291 289 288 290 291 289 291 293 300 309 313 326 333 341 345 348 355 4 8 350 342 334
287 293 298 301 303 305 306 308 311 311 309 307 304 300 295 293 292 291 291 291 290 288 296 292 293 303 311 325 335 345 348 354 360 358 11 10 8 356
Wind_Speed_850mb
14 10 6 6 8 10 13 16 16 12 18 16 25 28 31 33 39 44 51 54 58 63 68 73 78 82 83 81 74 74 77 77 80 78 75 74 72 71
16 11 8 7 10 13 15 17 18 20 18 25 29 34 36 39 43 47 52 55 58 62 70 75 81 85 84 79 73 73 75 78 79 79 77 76 74 71
19 15 11 10 13 16 18 19 21 24 30 33 35 38 44 47 51 55 59 62 63 64 71 74 82 85 84 81 76 77 75 74 73 73 73 72 70 68
22 19 15 14 16 20 21 21 23 28 34 41 45 47 52 53 57 61 64 68 69 70 75 74 80 84 87 87 85 79 72 69 67 68 68 67 65 62
25 22 20 19 21 23 24 26 28 31 37 47 52 55 60 62 64 66 69 72 75 75 83 74 83 89 88 86 81 80 77 66 65 67 68 66 63 64
31 28 26 25 26 28 30 31 35 38 42 49 55 59 62 65 67 72 76 77 81 79 88 79 90 90 89 86 82 80 77 70 72 71 67 67 66 65
39 36 34 32 33 35 37 37 42 45 48 53 59 62 65 67 67 71 76 81 83 83 86 91 95 94 92 86 83 82 75 69 65 62 59 60 56 55
47 43 40 40 40 42 44 45 48 50 52 57 61 65 67 65 65 69 73 73 85 82 98 95 95 96 88 89 86 81 70 64 59 65 68 69 68 65
53 50 47 47 47 49 48 51 55 56 59 61 66 68 68 63 65 65 63 68 81 91 89 97 92 94 92 95 87 73 70 61 70 69 64 65 60 58
60 56 54 54 54 53 54 58 59 61 60 60 66 67 64 59 54 59 65 74 85 90 77 89 87 98 98 99 84 80 81 76 68 65 59 64 61 59
65 60 61 60 57 56 62 64 65 68 63 63 67 68 54 45 53 64 63 70 86 89 78 66 88 99 101 96 95 90 81 79 77 65 67 58 55 54
66 66 64 64 62 61 64 67 73 73 68 69 67 63 59 58 53 53 59 69 71 80 51 71 85 78 94 100 101 93 89 81 81 68 49 48 51 50
70 67 67 65 63 64 67 72 75 71 72 71 70 68 66 62 56 58 62 63 66 70 66 57 79 79 68 94 101 94 88 86 75 62 48 59 51 49
72 71 71 65 67 68 69 71 70 67 66 67 69 71 68 67 67 67 66 64 64 66 59 53 70 66 67 83 93 93 84 77 69 60 66 61 48 40
73 70 69 72 72 73 72 65 54 55 60 67 71 73 69 67 72 71 67 66 68 66 55 51 59 61 60 71 81 84 86 74 59 72 66 61 57 50
68 73 73 71 71 72 71 63 56 56 61 67 70 68 68 70 72 71 69 68 72 72 55 48 54 54 63 63 68 71 60 62 69 71 70 65 54 47
60 63 64 66 67 64 62 62 61 56 58 60 63 67 68 69 72 72 65 66 70 70 63 50 47 52 55 58 60 51 59 69 65 65 65 66 58 53
54 57 57 57 57 57 58 59 58 59 61 63 66 68 68 66 65 64 62 63 68 61 56 51 49 54 56 54 41 48 58 66 63 58 57 63 65 56
45 46 48 50 50 51 55 60 66 70 73 73 70 68 61 59 60 62 63 61 61 54 48 43 39 43 52 60 63 53 63 59 63 63 58 58 62 58
37 43 49 54 59 63 66 68 70 70 69 67 62 59 58 58 59 59 57 55 54 48 45 34 30 33 38 49 64 61 51 55 58 63 58 51 50 52
42 44 45 48 52 56 61 64 64 63 59 55 51 48 47 50 53 53 51 49 46 42 42 31 26 27 33 39 48 60 52 45 47 46 45 48 59 57
39 41 43 46 50 52 53 54 52 49 45 43 42 42 41 42 44 43 44 43 39 39 39 31 25 27 29 34 44 51 58 56 40 34 32 32 41 44
40 41 41 41 44 45 45 45 44 40 38 39 40 40 40 41 39 40 41 39 36 36 34 32 26 25 26 30 37 45 51 57 59 48 36 36 33 29
Wind_Direction_850mb
207 217 240 262 268 264 263 275 289 288 303 310 319 321 324 328 328 331 332 332 332 333 329 328 331 331 328 325 321 318 315 311 308 304 303 302 301 298
209 219 227 242 252 252 260 275 284 290 290 304 313 313 316 319 321 322 323 325 327 328 325 329 333 330 330 328 322 319 313 309 306 303 301 300 299 298
206 215 226 237 247 255 265 276 287 294 300 305 307 308 310 314 317 319 320 323 326 326 324 330 329 329 331 326 324 319 316 313 309 304 302 300 300 299
214 221 229 241 251 260 267 278 289 296 303 306 306 307 308 313 315 316 317 319 322 326 324 329 325 329 331 329 327 326 321 316 312 309 305 303 301 298
226 230 236 247 258 264 270 280 286 295 302 304 307 309 311 314 314 313 315 317 319 323 320 328 324 329 329 328 328 328 324 322 319 312 307 304 301 298
234 237 243 253 263 270 273 278 284 292 298 301 303 307 308 312 312 313 313 317 318 320 318 327 324 326 328 329 328 329 329 321 315 311 304 300 298 297
238 241 248 256 265 274 277 278 281 289 293 297 299 303 306 310 313 315 315 314 316 323 319 323 322 326 327 328 330 333 327 323 322 319 316 310 307 298
242 247 251 259 268 277 278 278 281 285 289 291 296 299 305 308 311 312 312 311 320 318 318 319 322 323 325 329 334 333 329 325 323 315 310 306 303 302
245 249 254 263 270 276 279 280 283 286 289 291 294 297 302 306 306 305 305 311 311 315 316 314 321 320 326 327 332 334 335 326 320 319 316 312 308 304
248 252 259 265 271 275 279 279 281 282 283 284 288 292 293 298 300 297 303 307 307 312 317 314 319 318 325 324 331 338 337 329 325 322 320 313 308 305
250 255 261 267 272 275 276 280 282 281 282 284 285 288 294 281 274 288 296 306 311 312 315 311 317 317 322 324 330 334 334 336 334 326 319 318 315 312
254 257 261 268 272 273 276 280 280 284 287 285 284 285 287 289 290 294 301 308 309 307 306 312 314 321 324 321 323 330 334 338 335 332 328 328 322 320
258 261 266 269 274 277 278 279 281 284 285 285 289 293 295 297 296 297 304 306 307 298 309 310 309 314 314 314 319 328 333 335 332 334 325 329 327 322
262 265 268 273 273 275 276 278 279 280 283 286 286 288 291 295 296 297 301 305 305 300 306 305 301 308 311 310 314 324 330 333 332 331 332 330 330 334
264 269 274 274 278 281 282 282 279 273 270 271 278 286 292 292 292 295 297 304 304 301 303 304 300 305 307 308 312 321 328 332 336 332 329 334 337 336
262 268 274 278 280 282 285 287 283 281 279 283 287 290 290 289 291 291 293 301 303 302 303 304 301 303 305 310 313 321 329 329 336 334 330 329 331 335
261 263 267 272 276 278 279 280 281 278 280 282 283 285 286 286 286 287 290 298 299 301 305 307 301 303 306 313 316 330 335 336 338 331 328 327 332 340
266 269 269 269 272 276 279 282 284 287 290 291 290 289 288 287 284 284 289 295 296 298 303 307 309 311 313 318 333 340 337 336 335 337 334 330 328 341
270 274 276 280 280 281 283 287 290 292 293 293 292 292 288 283 283 285 290 291 292 297 300 303 310 319 323 326 331 347 337 342 339 336 337 331 327 336
267 266 268 273 278 283 288 293 295 297 297 297 295 293 287 284 283 284 287 290 292 296 295 296 306 317 326 326 323 334 357 347 342 333 335 331 335 336
274 275 279 284 288 292 295 296 297 299 300 299 298 297 292 284 282 284 287 288 292 294 292 296 305 313 316 317 323 335 345 353 352 341 339 339 334 341
280 284 289 294 297 298 299 301 304 306 307 305 303 300 297 294 291 289 288 290 291 289 291 293 300 309 313 326 333 341 345 348 355 4 8 350 342 334
287 293 298 301 303 305 306 308 311 311 309 307 304 300 295 293 292 291 291 291 290 288 296 292 293 303 311 325 335 345 348 354 360 358 11 10 8 356